Hourly Data Report for July 28, 2019

TORONTO CITY
ONTARIO
Current Station Operator: ECCC - MSC

43°40'00.000" N
79°24'00.000" W
112.50 m
6158355
71508
XTO

Download Data

Hourly Data (July 2019)
Hourly Data Report for July 28, 2019
TIME
LST
Temp Definition
°C
Dew Point Definition
°C
Rel Hum Definition
%
Precip. Amount Definition
mm

Wind Dir Definition
10's deg

Wind Spd Definition
km/h
Visibility Definition
km
Stn Press Definition
kPa
Hmdx Definition


Wind Chill Definition


Weather Definition


00:00 20.8 16.8 78 0.0       100.32 26   LegendNANA
01:00 20.7 16.5 77 0.0       100.30 26   LegendNANA
02:00 21.6 16.3 72 0.0       100.29 26   LegendNANA
03:00 21.6 16.7 73 0.0       100.22 27   LegendNANA
04:00 21.4 16.4 74 0.0       100.19 26   LegendNANA
05:00 22.0 17.9 78 0.0       100.24 28   LegendNANA
06:00 21.2 16.7 75 0.0       100.26 26   LegendNANA
07:00 23.1 18.3 74 0.0       100.24 29   LegendNANA
08:00 23.7 18.1 71 0.0       100.29 30   LegendNANA
09:00 24.9 18.0 66 0.0       100.29 31   LegendNANA
10:00 27.6 18.0 56 0.0       100.24 34   LegendNANA
11:00 28.8 18.4 54 0.0       100.23 35   LegendNANA
12:00 28.7 17.4 51 0.0       100.21 34   LegendNANA
13:00 28.6 17.8 52 0.0       100.16 34   LegendNANA
14:00 26.8 17.3 56 0.0       100.14 32   LegendNANA
15:00 27.0 16.3 52 0.0       100.10 32   LegendNANA
16:00 27.9 16.2 49 0.0       100.05 33   LegendNANA
17:00 30.3 14.7 39 0.0       100.03 34   LegendNANA
18:00 27.5 16.0 49 0.0       100.07 32   LegendNANA
19:00 26.4 17.1 57 0.0       100.09 32   LegendNANA
20:00 26.2 17.4 59 0.0       100.09 32   LegendNANA
21:00 24.6 17.5 65 0.0       100.16 30   LegendNANA
22:00 23.4 17.9 71 0.0       100.12 29   LegendNANA
23:00 23.1 17.9 73 0.0       100.10 29   LegendNANA

Notes on Data Quality.

Legend

  • E = Estimated
  • M = Missing
  • NA = Not Available*
  • [empty] = Indicates an unobserved value
Date modified: